Location: Jefferson
(30.9666°N, 81.7901°W)
Time: 22:28:34
(UTC+00:00)

Hubble Space Telescope - Pass Details

Date: 26 September 2024
Orbit: 504 x 508 km, 28.5° (Epoch: 06 October)

Event Time Altitude Azimuth Distance (km) Brightness Sun altitude
Exits shadow 09:40:24 18° 172° (S) 1,272 2.6 -21.6°
Maximum altitude 09:41:04 19° 158° (SSE) 1,241 2.7 -21.5°
Drops below altitude 10° 09:43:52 10° 112° (ESE) 1,697 4.1 -20.9°
Sets 09:46:34 0° 94° (E) 2,582 5.6 -20.4°
